Location: Godiavel Galaoual
(15.2485°N, 12.6604°W)
Time: 10:37:59
(UTC+00:00)

Tianhe-1 - Visible Passes

Search period start: 22 June 2021 00:00
Search period end: 02 July 2021 00:00
Orbit: 375 x 386 km, 41.5° (Epoch: 22 June)

Date Brightness Start Highest point End Pass type
(mag) Time Alt. Az. Time Alt. Az. Time Alt. Az.
30 Jun 4.2 05:32:44 10° N 05:34:39 15° NE 05:36:35 10° ENE visible
30 Jun 1.3 20:20:10 10° SSW 20:23:08 43° SE 20:25:01 19° ENE visible
01 Jul 3.4 20:56:12 10° W 20:58:48 24° NW 21:01:23 10° NNE visible
